Lid_Strength_Index
4 4 4 4 4 4 3 4 3 3 3 3 3 4 4 3 3 4 8 6 5 4 4 7 8 8 7 7 5 4 11 13 11 11 10 9 10 11 11 11 11 11 12 11 10
4 4 4 4 4 4 4 4 4 4 3 3 3 3 4 3 5 7 5 5 5 5 7 9 9 8 10 8 7 7 11 11 8 8 9 8 8 7 11 11 12 12 12 11 11
4 4 4 4 4 4 4 4 4 4 3 3 3 3 4 3 7 9 5 5 5 5 6 8 8 8 10 9 8 7 10 8 7 9 10 10 11 9 11 10 9 11 13 12 12
4 3 3 4 4 4 4 4 4 4 3 3 3 4 4 5 13 9 7 7 6 6 7 8 9 9 10 11 9 10 8 7 7 9 9 10 10 11 11 11 11 10 11 12 12
3 3 3 3 4 4 4 4 4 4 3 3 4 4 5 8 9 8 8 8 7 8 8 8 9 9 10 9 8 10 9 8 8 9 10 10 10 9 10 9 11 10 11 12 12
4 3 3 4 4 4 4 5 5 4 3 3 4 4 6 12 9 9 9 9 8 8 9 8 8 7 9 9 10 9 9 9 9 10 9 11 10 10 9 7 11 11 11 12 11
3 4 3 3 4 4 4 5 4 4 3 3 4 5 7 10 9 9 9 8 8 8 9 8 7 8 8 10 9 10 12 11 10 10 10 11 12 11 9 8 10 11 11 11 11
3 4 4 3 4 4 4 5 4 4 3 4 4 5 11 9 8 10 9 9 8 8 7 7 7 8 8 9 11 12 12 15 12 11 11 11 14 9 8 11 11 12 12 11 11
3 3 4 3 3 4 4 4 4 4 3 4 7 7 11 9 11 9 9 9 9 8 7 8 7 9 10 12 14 13 16 15 13 12 13 12 14 11 11 11 12 11 11 11 11
2 3 4 4 3 3 4 4 4 5 6 6 7 12 11 12 11 10 10 9 9 9 9 10 10 13 13 14 18 16 15 14 14 13 14 15 15 12 12 12 12 11 11 11 12
2 3 4 4 4 4 5 6 10 12 10 12 11 11 12 11 10 11 10 10 9 10 13 11 14 16 14 13 13 13 14 15 14 14 15 15 15 13 12 14 13 12 11 10 11
2 2 3 4 5 4 5 9 10 10 15 11 11 12 11 11 13 12 10 12 12 14 12 13 16 13 12 13 14 14 15 16 14 15 16 16 16 14 13 12 13 12 12 10 10
2 3 3 4 5 6 7 8 8 8 13 12 12 12 12 12 13 13 11 12 13 14 13 15 14 13 13 15 15 15 16 16 17 15 16 18 18 16 14 13 12 12 11 10 10
2 3 4 5 7 7 9 8 7 8 14 14 15 13 13 11 14 12 11 12 13 14 13 14 13 15 16 16 15 18 16 15 16 18 21 17 23 18 15 14 14 12 12 11 10
0 2 4 5 7 9 9 8 8 8 21 14 16 12 12 13 14 15 12 12 14 15 15 17 17 18 16 17 15 17 16 17 17 19 19 20 22 19 17 16 15 13 12 12 11
1 2 3 6 6 8 8 8 9 15 23 19 15 16 16 14 15 14 14 12 13 15 16 18 16 16 16 17 16 15 18 17 19 19 25 20 19 20 17 16 15 13 13 12 13
-0 1 5 5 9 8 8 10 16 20 15 18 18 16 16 17 16 15 16 17 18 20 19 18 18 17 16 18 17 17 19 21 24 26 24 20 20 18 15 13 14 13 13 14 13
-1 2 4 7 7 7 8 13 20 16 15 16 17 17 18 17 17 16 17 19 17 17 18 20 21 19 17 18 18 18 18 20 25 23 21 21 22 19 14 13 14 15 15 14 15
2 6 7 8 7 7 11 18 19 16 15 17 17 18 18 17 17 17 18 18 16 16 18 19 20 19 18 18 18 19 21 18 20 23 24 21 19 16 15 14 14 14 15 14 15
5 9 10 8 6 8 13 16 15 14 15 15 17 16 17 18 19 18 18 16 16 15 15 17 21 19 20 18 18 19 18 20 20 28 27 20 20 20 17 15 15 15 15 14 14
6 10 10 7 6 11 16 16 14 13 14 16 16 16 16 18 17 18 17 16 16 16 15 17 18 21 20 21 20 21 20 20 19 20 23 24 21 16 15 15 16 16 15 14 14
7 10 8 8 13 13 15 13 13 14 14 15 15 16 15 16 17 17 17 15 15 15 18 15 16 23 21 21 20 20 19 18 20 23 21 21 21 14 14 14 15 15 14 14 15
10 10 8 9 14 14 13 14 13 14 14 14 14 14 14 16 17 16 16 16 14 16 17 17 19 22 22 22 21 24 19 18 17 19 23 25 21 15 15 15 14 15 14 14 15
8 10 10 9 10 13 13 13 14 12 13 12 13 13 15 16 14 17 16 16 16 15 13 14 20 21 22 21 21 25 23 19 21 25 22 20 19 16 14 14 13 13 13 14 15
8 10 11 12 11 11 12 13 14 14 13 12 14 14 15 17 16 17 15 17 16 15 15 15 20 22 22 19 20 21 23 21 23 20 24 19 19 17 15 15 14 13 13 13 15
10 11 8 11 11 12 11 13 13 13 13 14 15 13 13 15 15 16 15 15 15 17 16 17 18 23 24 18 18 21 21 21 19 19 19 19 19 15 14 14 14 14 14 15 15
5 7 9 12 11 13 12 12 12 11 11 11 12 13 14 13 12 12 12 12 13 16 16 18 17 19 24 18 19 24 20 20 18 19 18 20 16 13 14 14 13 13 13 14 15